Location: LDNL
(36.4545°S, 141.6685°E)
Time: 16:26:47
(UTC+10:00)

Courier 1B Rocket - Pass Details

Date: 16 August 2022
Orbit: 920 x 1202 km, 28.2° (Epoch: 25 September)

Event Time Altitude Azimuth Distance (km) Brightness Sun altitude
Exits shadow 03:02:54 13° 74° (ENE) 2,886 7.7 -50.5°
Drops below altitude 10° 03:03:47 10° 78° (ENE) 3,134 8.0 -50.4°
Sets 03:06:54 0° 86° (E) 4,084 8.8 -49.8°
